カタログに戻る

TJS-27B

運用中LEO
NORAD 100176·PAYLOAD·🇨🇳 China

打ち上げ Jul 30, 2026 から Taiyuan Satellite Launch Center

Loading…

次のパス (今後24時間)

TLE

最新Source: Space-Track

元期: Sep 14, 2026, 14:51 UTC

1 A0176U 26173C   26257.61916321 -.00000019  00000-0  12832-3 0  9994
2 A0176  64.7896 165.5289 0004741 262.0722  97.9769 13.28335879  6191

AllMySatでTJS-27Bをリアルタイム追跡

Download on the App Store